Total_Precipitation_Accumulation
0.02 0.17 0.40 0.51 0.27 0.25 0.16 0.10 0.12 0.16 0.10 0.18 0.30 0.53 0.75 0.39 0.31 0.24 0.22 0.20 0.21 0.40 0.50 0.41 0.17 0.31 0.33 0.39 1.07 2.29 1.88 1.61 1.76 2.00 1.18 1.13 0.79 1.39 0.90 0.95 1.06 1.36 2.12 1.46 2.09 1.47 1.89 2.03 2.40 2.49 2.07 1.94 2.66 1.74 2.25 1.73 1.50 1.60 1.62 1.57 2.25 2.52 2.47 2.77 1.01 1.55 1.80 1.75 2.32 3.05 1.79 1.90 1.63 1.88 1.79 2.02 1.77 2.22 1.98 1.91 2.14 1.50 1.41 1.39 0.86 0.96
0.02 0.42 0.33 0.20 0.20 0.20 0.13 0.14 0.08 0.11 0.06 0.09 0.22 0.55 0.56 0.72 0.56 0.52 0.41 0.10 0.17 0.62 0.43 0.47 0.25 0.26 0.31 0.57 1.27 0.75 1.60 1.43 1.30 2.27 2.37 3.03 2.20 1.61 2.03 1.89 1.77 1.54 2.19 1.48 1.30 1.85 2.41 1.65 1.13 1.15 1.35 1.92 1.93 1.79 1.19 1.56 1.14 1.55 1.37 2.40 2.63 2.90 3.16 3.09 2.13 1.45 1.38 1.99 1.91 1.55 1.69 1.40 2.28 2.08 1.84 1.98 2.43 1.90 1.52 1.77 1.59 1.59 1.34 0.97 1.15 0.88
0.15 0.58 0.24 0.18 0.22 0.17 0.11 0.15 0.24 0.08 0.23 0.29 0.74 0.39 0.59 0.42 0.27 0.25 0.35 0.13 0.17 0.56 0.52 0.28 0.39 0.43 0.54 0.48 0.77 0.77 0.89 1.85 2.15 2.59 2.92 3.05 2.16 2.64 1.88 2.11 1.63 1.29 1.38 1.26 1.53 1.47 1.64 1.35 0.86 0.99 0.99 1.13 1.10 1.15 1.52 0.92 1.22 1.32 1.87 2.21 3.31 3.04 3.84 3.60 4.10 3.80 3.63 2.54 2.53 2.18 1.96 1.84 2.62 2.46 2.85 2.17 1.88 1.78 1.60 1.17 1.65 1.26 0.82 0.74 0.86 0.83
0.74 0.23 0.20 0.08 0.16 0.17 0.14 0.10 0.18 0.05 0.06 0.39 0.23 0.55 0.91 0.21 0.70 0.67 0.20 0.08 0.05 0.46 0.42 0.59 0.55 0.53 0.76 0.62 0.72 0.70 0.61 1.09 2.19 2.41 2.66 4.54 3.59 2.50 2.73 1.75 2.27 1.73 2.22 2.56 2.16 1.62 1.54 1.02 1.40 1.18 0.82 1.01 1.11 2.04 1.53 1.78 1.92 2.68 2.63 1.78 2.20 2.80 2.17 2.53 3.04 3.43 3.17 2.60 2.12 2.19 2.77 3.82 3.08 3.19 2.54 1.79 2.09 1.87 2.07 1.83 2.00 1.23 1.04 0.97 0.89 1.01
0.24 0.11 0.09 0.04 0.10 0.01 0.10 0.07 0.10 0.52 0.48 0.27 0.31 0.72 0.28 0.18 0.28 0.66 0.40 0.18 0.12 0.10 0.18 0.38 0.74 0.78 0.40 0.68 0.54 0.72 0.64 0.91 0.75 0.93 1.19 1.23 1.47 1.07 1.22 1.05 1.45 1.66 1.45 1.44 1.30 1.84 1.38 1.07 1.55 1.22 0.90 1.12 1.48 0.80 1.52 2.04 2.36 2.67 1.64 1.77 1.91 2.13 2.32 2.45 3.31 1.92 2.70 2.77 2.61 2.25 2.58 3.25 2.59 3.14 2.48 2.39 1.94 1.42 1.94 2.20 1.80 1.09 0.77 0.69 0.74 1.51
0.12 0.02 0.01 0.03 0.00 0.02 0.11 0.15 0.04 0.10 0.74 0.43 0.09 0.22 0.50 0.14 0.33 0.21 0.10 0.31 0.40 0.46 0.24 0.27 1.08 1.33 0.74 0.65 0.61 0.55 0.47 0.38 0.54 0.83 0.93 0.90 0.90 0.60 1.05 1.01 0.60 0.54 0.73 1.19 0.80 1.12 1.25 0.92 1.61 1.24 1.56 2.08 2.17 1.73 1.22 1.51 1.86 2.17 1.65 1.61 2.52 1.81 2.20 2.89 3.57 2.90 2.74 2.39 1.71 2.26 2.05 1.87 1.71 2.37 2.01 2.39 1.52 1.19 1.06 1.07 0.89 1.14 0.91 0.87 0.75 1.07
0.03 0.00 0.00 0.01 0.02 0.07 0.05 0.21 0.08 0.06 0.62 0.68 0.48 0.03 0.07 0.25 0.26 0.73 0.47 0.74 1.21 1.10 0.78 0.21 1.62 1.41 0.82 0.75 0.67 0.50 0.42 0.53 0.68 0.84 1.03 1.05 0.66 0.69 0.90 1.08 1.03 0.79 0.65 0.63 0.75 0.60 0.96 1.50 1.31 1.04 1.84 2.55 1.89 1.86 1.23 1.30 2.06 1.15 1.01 1.42 2.25 2.49 1.39 2.22 2.19 1.90 1.75 1.76 1.66 1.67 1.46 1.95 1.61 1.28 2.26 1.47 1.26 0.92 0.77 0.69 0.85 0.95 1.35 1.15 1.11 1.09
0.00 0.01 0.01 0.00 0.02 0.04 0.12 0.31 0.10 0.07 0.50 0.85 0.04 0.12 0.10 0.17 0.24 0.33 0.35 0.54 0.78 0.18 0.15 0.09 0.32 0.98 1.07 0.72 0.20 0.38 0.45 0.36 0.70 0.76 0.50 0.66 0.52 0.49 0.71 1.23 1.20 0.51 0.57 0.64 0.45 1.02 1.31 1.01 0.86 0.78 1.35 2.27 2.63 2.12 1.30 1.80 2.06 1.54 1.06 1.06 2.12 1.23 1.65 1.53 1.31 0.94 0.88 1.86 1.65 1.62 1.57 2.18 2.26 1.80 2.15 1.13 1.09 1.15 1.05 1.24 0.88 1.24 1.79 1.33 1.77 1.73
0.01 0.01 0.01 0.01 0.02 0.06 0.44 0.17 0.04 0.03 0.30 0.37 0.08 0.02 0.19 0.13 0.22 0.36 0.67 0.79 0.47 0.32 0.83 0.39 0.15 0.71 1.20 0.79 0.20 0.59 0.61 0.51 0.60 0.43 0.36 0.46 0.63 0.78 0.81 0.86 0.77 0.95 0.91 1.09 1.78 1.04 1.57 0.79 1.60 1.34 0.96 1.69 1.60 1.40 2.57 2.80 3.07 2.10 1.47 1.45 1.79 1.49 1.66 1.38 1.15 1.12 1.41 1.73 1.94 1.97 2.16 1.94 1.95 2.31 2.13 1.27 0.95 1.02 0.92 0.89 1.65 1.60 2.58 2.43 2.27 2.12
0.01 0.00 0.02 0.01 0.07 0.31 0.11 0.05 0.02 0.00 0.28 0.01 0.01 0.01 0.05 0.10 0.24 0.22 0.48 0.85 0.59 0.60 1.04 0.82 0.38 1.07 1.55 0.78 0.72 0.50 0.63 0.46 0.44 0.42 0.62 0.71 1.17 0.65 0.77 0.45 0.48 0.58 0.37 0.54 0.90 0.86 1.00 1.65 1.38 0.79 0.48 1.15 1.66 3.00 3.91 3.43 3.15 1.92 1.80 1.76 1.09 1.49 1.80 1.56 1.66 0.94 1.17 0.99 1.99 2.33 2.28 1.84 1.97 2.10 1.24 1.15 1.31 1.32 1.52 1.04 1.85 2.00 1.37 1.54 1.39 1.27
0.02 0.00 0.00 0.01 0.19 0.07 0.04 0.02 0.01 0.03 0.03 0.01 0.01 0.10 0.18 0.29 0.40 0.40 0.34 0.78 0.67 0.94 0.94 0.35 0.26 0.32 1.36 1.25 1.10 0.88 0.36 0.31 0.35 0.34 0.37 0.39 0.48 0.56 0.65 1.03 0.90 0.37 0.35 0.47 0.80 0.89 1.56 1.93 1.51 0.78 1.00 1.81 2.18 2.96 3.12 4.36 1.90 1.91 1.81 2.27 2.39 1.22 1.69 1.92 1.43 1.07 1.36 1.32 1.15 1.52 1.50 1.80 1.73 1.04 1.09 1.24 1.05 1.36 1.43 1.15 1.24 1.15 0.97 0.91 1.00 0.99
0.02 0.04 0.08 0.02 0.01 0.01 0.02 0.02 0.02 0.02 0.01 0.01 0.13 0.15 0.43 0.50 0.44 0.62 0.73 0.44 1.04 1.29 0.29 0.23 0.43 0.41 1.05 2.15 0.81 0.28 0.17 0.25 0.31 0.19 0.27 0.22 0.27 0.41 0.30 0.37 0.27 0.33 0.35 0.45 0.60 0.96 1.46 0.86 0.98 0.83 1.21 1.79 3.59 3.53 3.38 2.36 1.51 2.01 1.68 1.87 1.82 1.81 1.63 1.89 2.20 1.85 1.68 2.13 1.41 2.12 2.01 1.34 1.25 1.33 0.98 0.70 0.51 0.54 0.85 0.99 0.95 0.75 0.78 0.93 1.07 1.69
0.14 0.17 0.05 0.03 0.03 0.05 0.02 0.14 0.12 0.00 0.01 0.09 0.14 0.38 1.31 1.60 0.71 0.93 1.45 0.83 0.67 0.99 0.51 0.43 0.20 0.62 1.00 0.82 1.12 0.36 0.26 0.22 0.16 0.34 0.26 0.15 0.15 0.16 0.13 0.15 0.60 0.35 0.47 0.71 0.76 0.84 0.97 1.05 0.96 1.26 2.07 1.48 1.10 2.57 2.34 1.79 2.32 1.56 1.78 2.15 2.84 3.36 2.16 2.28 1.98 1.72 2.23 2.80 2.40 3.16 2.19 1.15 1.45 1.12 1.35 0.85 0.65 1.10 0.96 0.97 1.05 0.91 1.02 0.76 1.08 0.67
0.25 0.11 0.03 0.09 0.01 0.02 0.09 0.85 0.30 0.26 0.33 0.29 0.44 0.70 1.03 1.05 0.61 0.33 0.74 0.46 0.83 0.39 0.27 0.62 0.09 0.87 1.09 0.74 0.56 0.67 0.35 0.19 0.12 0.12 0.19 0.09 0.08 0.10 0.12 0.13 0.22 0.27 0.54 0.62 0.84 0.75 0.84 0.72 1.40 1.15 1.21 1.08 1.22 2.29 2.76 1.88 1.58 2.39 2.09 1.87 2.42 2.80 1.71 2.40 2.58 1.83 1.44 2.71 3.01 2.49 1.24 0.74 0.75 0.95 1.24 1.58 0.71 0.49 0.68 0.89 0.46 0.57 0.61 0.60 0.71 0.98
0.65 0.80 0.38 0.07 0.54 0.00 0.02 0.09 0.21 0.77 0.22 0.68 0.25 0.50 0.88 0.73 0.87 0.50 0.80 0.80 0.85 0.98 0.50 0.20 0.44 1.01 0.81 3.62 0.64 0.20 0.23 0.16 0.07 0.17 0.15 0.14 0.11 0.21 0.12 0.23 0.29 0.32 0.32 0.29 0.36 0.55 1.08 1.39 1.25 1.04 1.36 1.24 1.04 1.79 1.86 1.49 1.30 1.02 1.03 1.70 2.53 3.28 3.12 2.17 2.43 1.38 1.96 2.21 1.56 1.98 1.54 1.04 0.80 0.63 1.46 1.92 1.27 0.72 0.59 0.59 1.15 0.65 0.59 0.80 0.99 1.00
0.28 0.53 0.15 0.02 0.06 0.00 0.04 0.02 0.01 0.08 0.28 0.11 0.27 0.30 0.66 1.00 0.16 0.96 0.67 0.58 0.79 0.60 0.73 0.27 0.46 0.97 1.45 1.26 1.08 0.84 0.14 0.07 0.12 0.13 0.07 0.12 0.13 0.12 0.21 0.20 0.28 0.30 0.27 0.44 0.62 1.17 1.27 1.30 1.33 1.23 1.02 1.03 1.02 1.06 1.04 0.74 0.95 1.49 1.39 1.41 2.02 2.70 3.22 2.78 2.95 3.06 3.13 2.23 1.27 1.18 0.91 0.96 0.95 1.16 1.11 1.83 2.02 1.77 1.06 1.02 0.81 1.07 0.73 1.09 0.48 0.36
0.20 0.80 0.02 0.04 0.00 0.01 0.08 0.00 0.04 0.04 1.78 0.83 0.23 0.84 0.54 0.10 0.19 0.43 0.15 0.07 0.04 0.19 0.50 0.24 0.82 0.89 0.29 0.62 0.79 0.67 0.11 0.23 0.18 0.14 0.09 0.31 0.43 0.55 0.67 0.91 0.97 0.95 0.84 1.07 1.36 1.40 1.25 1.25 1.12 1.18 0.93 1.01 0.58 0.69 0.64 0.94 1.38 1.31 1.30 1.02 0.98 1.24 1.68 2.97 2.24 1.87 3.11 2.41 1.70 1.78 1.53 1.05 0.97 1.03 1.38 1.30 1.09 0.90 0.83 1.04 1.04 0.82 0.56 0.85 0.96 0.78
0.31 0.77 0.01 0.02 0.12 0.02 0.01 0.00 0.04 0.04 0.01 0.21 0.93 0.30 0.13 0.06 0.14 0.19 0.86 0.27 0.21 0.68 0.42 0.36 0.81 1.38 0.55 2.72 1.01 0.71 0.52 0.51 0.34 0.33 0.50 0.50 0.57 0.67 0.82 0.81 0.91 1.05 1.10 0.88 1.02 0.82 0.80 0.73 1.03 1.18 0.89 1.13 0.78 1.40 0.83 0.80 1.03 0.88 1.27 1.32 1.00 1.40 1.93 2.14 2.07 1.86 2.00 1.75 2.06 1.51 1.15 0.97 0.77 0.95 0.91 1.26 1.43 1.13 1.05 0.84 1.23 0.94 1.13 0.74 0.70 0.81
0.12 0.54 0.16 0.01 0.01 0.02 0.01 0.01 0.05 0.03 0.05 0.15 0.54 0.12 0.43 1.37 1.62 0.29 0.11 0.46 0.68 0.35 0.38 0.42 0.48 0.78 0.61 1.69 0.73 1.29 1.02 0.61 0.52 0.39 0.24 0.27 0.19 0.42 0.77 1.02 0.98 0.61 0.62 0.63 0.87 0.85 0.60 0.83 0.86 1.05 0.92 1.00 1.38 1.31 0.72 1.00 1.20 0.62 0.83 0.70 0.62 1.59 2.37 2.64 2.51 2.25 2.83 1.85 2.26 1.36 0.98 1.01 1.07 1.45 1.54 1.23 1.18 1.91 1.73 1.13 1.25 0.97 0.87 1.31 1.32 1.26
0.06 0.33 0.42 0.02 0.04 0.15 0.03 0.04 0.49 0.25 0.06 0.04 0.05 0.41 0.24 0.25 0.53 0.85 0.41 0.58 0.47 0.83 0.26 0.85 0.64 1.34 0.75 1.08 0.68 0.83 0.62 0.71 0.61 0.41 0.50 0.44 0.54 0.38 0.40 0.32 0.45 0.45 0.62 0.73 0.82 0.85 0.75 0.82 1.19 1.10 1.08 0.97 0.98 0.56 0.71 1.19 1.48 1.30 1.77 0.72 1.45 2.12 3.32 1.24 1.10 1.76 1.71 1.24 1.00 1.12 1.25 1.50 1.38 1.03 1.25 1.10 1.14 1.18 1.19 0.81 0.79 1.03 1.41 1.55 1.60 1.70
0.42 0.09 0.66 0.26 0.04 0.06 0.47 0.11 0.52 0.39 0.41 0.25 0.15 0.49 0.39 0.24 0.26 0.17 0.39 0.34 0.64 0.49 0.55 0.44 0.72 1.38 1.02 0.60 0.47 0.82 0.41 0.34 0.66 0.61 0.54 0.60 0.60 0.74 0.68 0.39 0.43 0.47 0.49 0.47 0.72 0.63 0.89 0.84 0.88 0.86 0.80 1.00 0.95 0.79 1.46 1.67 1.71 1.92 2.13 1.77 2.55 2.85 2.24 2.12 1.93 1.86 1.76 1.39 0.93 0.87 1.05 1.09 0.79 0.59 0.81 1.26 1.32 1.56 1.47 1.14 1.41 1.47 1.16 1.60 1.57 1.53
0.23 0.36 0.46 0.26 0.54 0.23 0.29 0.08 0.17 0.22 0.20 0.39 0.28 0.61 0.34 0.63 0.87 0.72 0.99 0.14 0.22 0.46 0.58 0.40 1.06 1.13 0.93 0.48 1.18 0.59 0.28 0.67 0.68 0.75 0.77 0.64 0.55 0.41 0.36 0.51 0.42 0.58 0.54 0.40 0.28 0.59 0.75 0.77 1.26 0.95 0.92 1.13 1.27 1.20 0.96 1.17 1.11 0.92 1.24 1.93 2.31 2.96 2.77 2.80 2.75 2.51 2.64 2.01 2.31 1.79 2.70 1.58 1.88 1.11 0.44 0.48 1.36 1.64 2.03 2.18 2.57 1.42 0.70 1.37 2.00 1.63
0.29 0.61 0.71 0.43 0.55 0.88 0.32 0.20 0.11 0.35 0.20 0.29 0.36 0.87 0.44 0.95 0.49 0.94 0.73 0.85 0.33 0.57 0.22 0.68 0.54 1.48 0.84 0.92 0.53 0.65 0.31 0.34 0.74 0.82 1.27 0.68 0.74 0.37 0.26 0.27 0.65 0.54 0.50 0.48 0.71 0.89 1.21 0.73 0.96 1.19 0.92 1.17 0.97 1.11 1.84 1.66 1.94 2.18 1.93 3.38 3.28 2.72 3.11 2.83 2.87 2.81 1.91 2.47 1.81 1.87 1.60 1.69 1.53 1.25 1.18 0.99 1.35 1.86 2.79 2.25 1.73 1.83 1.33 1.52 1.80 1.39
0.30 0.51 0.73 0.55 0.27 0.23 0.18 0.12 0.15 0.64 0.23 0.27 0.33 0.27 0.46 0.88 0.91 0.75 0.62 0.84 0.79 0.73 0.90 1.01 0.61 1.63 1.42 1.26 0.73 0.59 0.49 0.38 0.45 1.05 0.72 1.02 0.83 0.60 0.36 0.25 0.25 0.37 0.43 0.46 0.50 1.22 1.17 1.26 1.05 1.18 0.69 0.77 0.45 0.94 1.60 2.37 2.95 2.48 2.80 2.16 3.39 2.90 2.04 2.53 1.84 1.83 1.92 2.45 2.00 2.01 1.32 1.36 0.79 0.81 0.50 0.47 0.72 1.60 2.62 2.05 1.69 0.99 0.85 1.22 1.69 1.31
0.89 1.28 0.68 1.29 0.76 0.85 0.64 0.41 0.73 0.42 0.36 0.35 0.71 0.60 0.33 0.60 0.45 0.68 0.58 0.79 0.75 0.65 0.82 0.89 1.27 1.33 1.42 0.85 0.58 0.71 0.49 0.85 0.93 0.93 1.03 1.10 1.11 0.62 0.38 0.22 0.17 0.24 0.63 0.49 0.80 1.12 0.99 0.91 0.60 0.57 0.57 0.63 0.80 1.09 1.58 2.20 2.54 1.95 2.48 2.72 3.14 2.35 2.72 2.54 2.15 2.00 2.49 2.15 1.82 1.75 1.65 1.32 1.20 0.67 0.96 1.04 1.02 1.41 1.43 1.61 1.32 0.90 0.83 0.96 1.18 1.19
0.62 1.13 1.16 1.48 1.43 1.44 1.62 1.65 1.88 1.49 1.09 0.64 0.38 0.34 0.28 0.31 0.58 0.69 0.56 0.85 0.70 0.69 0.70 0.96 0.89 1.07 1.10 0.62 0.74 1.08 1.02 1.11 1.24 1.10 0.90 1.05 0.95 0.76 1.05 0.59 0.76 0.53 0.43 0.47 0.47 0.76 1.13 0.94 1.05 0.88 0.90 0.82 0.94 1.05 1.20 1.34 1.34 1.27 1.37 1.90 2.44 3.97 2.48 2.22 2.58 2.57 1.91 2.06 2.54 2.32 2.00 1.77 1.59 1.43 0.99 0.76 1.08 1.64 1.70 1.80 1.35 1.25 0.75 0.58 1.02 1.11
0.75 0.88 0.87 1.05 1.41 1.76 1.61 1.34 1.42 0.64 0.84 0.86 0.73 0.43 0.39 0.39 0.58 0.60 0.66 0.74 1.14 1.02 0.78 1.19 1.04 1.10 0.91 0.78 0.61 0.59 0.68 0.70 0.74 0.63 0.91 1.03 1.10 0.67 0.77 1.25 0.90 1.10 1.15 1.19 0.91 0.85 0.91 1.01 0.76 0.95 1.22 1.58 1.76 2.85 3.09 2.65 2.23 1.83 1.68 2.99 2.19 2.10 2.84 3.50 3.05 2.06 2.09 2.08 1.93 2.39 1.87 1.42 1.10 1.40 1.20 1.37 1.37 1.49 1.77 1.70 1.20 0.84 0.46 0.56 0.69 0.79
0.64 0.69 0.92 1.54 1.53 1.16 1.05 1.19 1.15 0.80 0.87 0.57 0.42 0.56 0.50 0.39 0.66 0.57 0.62 1.07 0.90 0.72 1.00 0.80 0.76 0.74 1.06 0.70 0.85 0.76 0.63 0.52 0.51 0.50 0.35 0.45 0.68 1.04 1.41 0.66 0.56 0.44 0.61 0.61 0.48 0.57 1.06 1.46 1.17 1.25 1.09 1.46 1.63 2.51 2.11 1.39 1.42 1.85 2.59 2.66 2.40 2.34 2.05 1.50 1.99 2.11 2.33 2.23 2.18 1.91 2.08 2.29 1.96 2.15 1.44 1.31 1.47 1.61 1.95 1.96 1.59 1.62 1.65 1.34 0.99 0.83
1.09 0.76 0.90 0.84 1.10 1.18 0.82 0.80 0.79 1.01 0.66 0.47 0.36 0.29 0.88 0.57 0.47 0.68 0.35 0.68 0.89 0.90 1.25 0.95 1.03 0.85 1.00 1.08 0.96 1.07 0.66 0.57 0.73 0.72 0.65 0.61 0.49 0.51 0.79 0.88 0.93 0.94 0.98 0.68 0.52 0.41 0.37 0.53 0.66 0.88 1.44 1.42 2.22 2.90 1.35 1.06 1.35 1.63 1.42 1.90 1.79 1.82 1.70 1.97 2.94 3.19 2.08 1.98 2.64 2.97 3.17 3.01 2.77 2.35 1.54 1.27 1.24 1.32 1.99 1.75 1.78 1.79 1.97 1.79 1.62 1.36
0.49 0.52 1.38 0.69 0.90 0.82 0.81 0.73 0.68 0.66 0.60 0.53 0.31 0.30 0.43 0.33 0.46 0.44 0.43 0.63 0.76 0.63 0.62 0.62 0.47 0.47 0.74 0.82 0.79 1.02 0.66 0.52 0.54 0.37 0.34 0.27 0.31 0.27 0.32 0.32 0.64 0.65 0.65 0.42 0.46 0.47 0.51 0.37 0.48 0.62 1.21 1.60 1.29 1.69 0.98 1.49 1.34 0.81 1.33 1.39 1.56 1.19 1.78 3.43 2.46 1.90 2.57 2.96 2.51 2.43 2.59 2.40 2.27 1.84 1.30 1.09 0.90 0.64 0.95 1.49 0.81 1.04 1.47 1.24 1.01 0.75
0.47 0.78 0.27 0.74 0.91 0.93 1.09 1.04 0.63 0.46 0.52 0.70 0.38 0.41 0.40 0.39 0.36 0.40 0.37 0.53 0.45 0.43 0.48 0.36 0.61 0.59 0.93 0.63 0.76 1.02 0.52 0.30 0.35 0.57 0.37 0.29 0.28 0.30 0.30 0.32 0.37 0.40 0.56 0.35 0.41 0.45 0.52 0.48 0.33 0.42 0.66 0.96 0.98 1.08 0.85 0.68 1.36 0.76 0.94 1.52 1.45 1.17 1.14 1.52 2.09 2.60 3.04 3.68 2.83 2.88 2.24 1.85 1.28 1.58 1.34 0.96 1.01 0.89 0.78 1.28 1.29 1.46 1.02 1.26 1.09 1.08
0.70 0.72 0.41 0.69 1.13 1.07 0.81 0.98 1.55 0.91 0.63 0.83 0.95 0.71 0.70 0.54 0.68 0.72 0.75 0.83 0.71 0.94 1.03 0.89 0.78 1.33 1.08 0.43 0.89 0.60 0.57 0.53 0.60 0.71 0.78 0.83 0.62 0.73 0.61 0.63 0.41 0.35 0.46 0.66 0.53 0.50 0.63 0.63 0.47 0.55 0.46 0.70 0.78 1.03 0.89 0.73 1.08 0.96 0.89 1.19 1.31 2.01 2.75 1.80 2.64 2.50 2.42 2.24 3.00 3.46 3.06 2.64 2.20 2.09 1.94 1.33 1.05 1.76 1.40 1.43 1.83 1.37 1.06 1.17 1.02 1.25
0.92 0.84 0.87 0.96 0.92 0.76 0.91 0.76 1.06 0.99 0.96 1.33 1.09 0.96 0.65 0.79 0.77 0.64 0.66 0.58 0.87 0.99 1.26 1.11 1.84 1.33 0.84 0.56 0.60 0.84 0.70 0.73 1.02 0.75 1.08 0.83 0.67 0.71 0.61 0.48 0.46 0.39 0.56 0.28 0.47 0.52 0.52 0.55 0.57 0.68 0.70 0.57 0.53 0.79 0.98 1.24 1.76 1.30 1.17 0.90 0.97 1.28 1.70 1.71 2.64 2.77 2.80 3.18 3.23 3.34 3.09 2.85 2.34 2.75 2.06 2.16 1.18 1.60 3.74 2.81 2.14 1.79 1.30 0.97 0.90 1.23
0.47 0.91 1.12 1.37 1.24 1.08 0.87 1.00 1.01 1.30 1.56 1.66 1.49 0.58 0.58 0.87 0.79 1.02 0.95 0.81 0.93 0.88 1.35 1.49 1.41 0.99 0.75 0.96 0.84 0.88 1.09 1.17 0.92 1.07 0.98 1.14 1.03 0.81 0.77 0.64 0.35 0.33 0.42 0.42 1.11 0.54 0.42 0.50 0.47 0.54 0.54 0.58 0.62 0.69 0.75 0.87 1.06 1.36 1.20 1.64 1.36 0.87 1.29 1.75 1.68 1.89 1.98 2.56 2.31 2.35 2.65 2.58 3.11 2.63 2.58 2.14 1.90 2.24 1.93 1.73 1.80 2.55 1.91 1.84 1.83 1.25
0.48 0.61 0.92 1.33 0.98 0.90 1.21 1.29 1.41 1.72 1.72 1.53 1.02 1.56 0.67 0.73 0.53 0.78 0.83 0.63 0.79 0.95 1.19 0.95 1.00 0.82 0.95 0.77 0.80 0.84 0.97 0.86 1.10 1.21 1.01 1.05 0.95 0.83 0.75 0.76 0.78 0.86 0.68 0.51 0.65 0.83 0.58 0.71 0.60 0.68 0.87 0.66 0.57 0.53 0.63 0.77 0.84 1.07 1.04 0.97 1.12 1.34 1.36 1.51 1.67 1.41 1.38 1.91 2.40 1.99 1.89 2.20 2.44 3.10 2.49 2.46 2.25 2.58 3.01 1.78 2.38 1.89 1.58 1.94 1.59 1.82
0.64 0.65 0.61 0.60 0.56 1.02 1.16 1.70 1.58 1.13 1.66 1.45 1.82 1.50 1.14 1.28 1.11 0.87 0.88 0.72 0.84 1.10 1.00 1.16 1.14 0.85 0.79 0.77 0.78 0.82 0.86 1.41 0.81 0.96 0.90 0.86 0.61 0.69 0.66 0.57 0.73 0.61 0.71 0.58 0.63 0.79 1.01 0.75 1.06 1.44 1.24 0.96 0.88 0.96 0.81 0.67 0.73 0.82 1.10 0.97 1.07 1.29 1.40 1.78 1.75 1.53 1.41 1.44 1.60 1.89 2.29 2.51 2.38 2.53 2.89 2.36 2.50 2.55 2.39 2.37 2.61 2.01 2.60 2.01 1.97 2.37
0.62 0.84 1.15 1.25 0.64 1.19 1.14 1.33 1.38 1.69 1.30 1.50 1.81 1.40 1.23 1.69 1.18 1.13 1.12 0.92 0.91 1.10 1.12 1.53 1.59 1.42 0.83 1.05 1.01 1.24 1.22 0.89 1.17 1.17 1.11 0.98 0.76 0.64 0.61 0.54 0.42 0.41 0.39 0.53 0.72 0.57 0.42 0.67 0.96 1.11 1.09 1.04 1.31 0.95 1.01 0.90 0.90 0.73 0.70 1.17 1.06 0.86 0.98 1.15 1.58 2.00 2.21 1.89 1.64 1.78 1.60 2.18 2.13 3.04 2.60 2.81 1.84 2.00 2.32 2.76 2.27 2.21 2.12 2.48 2.99 2.42
0.62 1.10 1.47 1.34 1.87 0.77 1.51 1.55 1.45 1.54 1.53 2.00 1.37 1.21 0.85 1.13 0.88 1.28 0.98 0.99 0.77 1.02 1.13 1.73 1.62 1.66 1.35 0.98 1.00 1.02 0.92 0.91 1.18 1.50 1.51 1.31 1.09 0.86 0.57 0.40 0.33 0.41 0.51 0.64 0.46 0.54 0.90 1.29 1.21 0.92 1.16 1.36 1.07 1.15 1.15 1.08 1.07 0.91 1.14 1.19 1.24 1.74 1.54 0.99 1.23 1.41 1.87 2.08 2.30 2.50 2.01 2.13 2.44 1.67 2.16 2.78 2.65 1.94 1.82 2.30 2.25 2.48 2.63 2.45 2.22 1.91
0.82 0.75 1.07 0.99 1.52 0.83 1.04 1.69 1.65 1.41 1.59 1.46 1.88 1.53 1.39 0.79 0.72 1.35 0.89 1.43 1.38 1.06 1.09 1.53 1.52 1.27 1.41 1.40 1.26 1.07 1.42 1.50 1.60 1.66 1.68 1.56 1.11 0.86 0.68 0.45 0.45 0.31 0.27 0.33 0.36 0.40 0.37 0.40 0.49 0.65 0.67 0.71 0.90 0.83 0.66 0.87 0.78 0.68 0.71 0.64 0.80 0.90 0.95 1.18 1.68 1.57 1.91 1.79 2.39 2.36 2.41 2.81 3.04 2.49 2.16 2.65 2.52 2.06 1.71 1.47 1.58 1.90 2.08 1.91 2.05 2.86
0.93 1.20 1.06 1.06 0.95 0.70 1.11 1.26 2.27 1.69 1.75 1.73 1.60 1.34 0.96 0.65 0.84 1.25 1.19 1.50 1.40 1.49 1.50 1.82 1.60 1.28 1.38 1.62 1.83 1.72 1.84 2.93 2.25 2.22 1.60 0.99 0.98 1.00 0.79 0.49 0.46 0.44 0.51 0.53 0.33 0.39 0.37 0.33 0.24 0.23 0.29 0.35 0.36 0.35 0.52 0.55 0.33 0.21 0.26 0.19 0.29 0.49 0.47 0.45 0.64 0.72 1.15 1.41 1.79 2.46 2.22 1.98 2.84 3.15 3.54 4.07 4.22 3.65 3.43 3.05 2.36 1.75 2.09 2.49 2.43 3.09
0.78 0.96 0.52 1.01 0.93 1.05 0.72 0.99 0.99 1.17 1.59 1.54 1.19 1.06 0.68 0.35 0.59 1.02 1.93 2.66 1.55 1.78 1.77 1.95 1.37 1.41 1.38 1.36 1.97 2.46 2.08 2.38 2.20 1.52 1.06 0.89 0.76 0.73 0.76 0.72 0.68 0.57 0.61 0.74 0.94 0.57 0.45 0.39 0.37 0.35 0.34 0.31 0.20 0.15 0.24 0.28 0.22 0.19 0.27 0.61 0.38 0.27 0.27 0.45 0.65 0.76 0.62 0.72 0.89 1.40 1.92 1.99 2.13 2.13 2.18 2.80 4.09 3.17 2.56 2.72 2.92 2.64 2.51 3.49 3.54 2.76
0.49 0.43 0.91 0.47 0.98 1.16 1.19 1.35 1.39 1.36 1.67 1.41 1.32 1.18 1.30 0.90 1.82 2.60 2.39 1.66 1.66 1.44 1.67 1.56 1.51 1.90 1.55 2.12 1.72 1.70 1.78 1.79 1.60 1.22 1.06 1.17 1.05 1.00 0.92 1.06 0.88 0.90 1.12 1.05 1.21 0.95 0.81 0.59 0.48 0.41 0.31 0.28 0.23 0.16 0.17 0.21 0.21 0.21 0.66 0.44 0.19 0.42 0.60 0.52 0.33 0.22 0.30 0.43 0.62 0.89 1.36 2.06 3.18 2.57 2.89 3.11 3.41 2.57 2.08 2.30 2.76 2.57 3.31 3.21 2.42 2.79
0.72 0.82 0.92 1.04 0.56 0.74 0.93 1.26 1.61 2.11 2.85 1.15 1.87 1.85 2.29 2.27 2.39 1.85 1.40 1.17 0.94 1.04 1.15 1.37 1.61 1.80 1.45 1.61 1.28 1.22 1.46 1.32 1.36 1.29 1.10 1.35 1.33 1.35 1.17 1.32 1.35 1.48 1.25 1.60 1.13 1.06 0.88 1.21 0.87 0.66 0.58 0.47 0.34 0.22 0.21 0.19 0.17 0.12 0.13 0.20 0.18 0.20 0.20 0.20 0.34 0.20 0.25 0.27 0.43 0.93 1.02 0.89 2.06 2.32 2.93 2.60 2.04 1.95 2.57 2.54 2.46 2.14 2.19 2.14 2.17 2.07
0.63 1.26 0.94 0.93 1.03 1.48 1.23 1.47 2.03 2.10 1.82 1.98 2.04 2.82 2.93 2.56 1.80 1.51 1.12 1.59 1.12 1.12 1.27 1.19 1.67 1.51 1.81 1.80 1.67 1.56 1.32 1.30 1.18 1.21 0.95 1.03 1.43 1.58 1.53 1.47 1.55 2.08 1.29 1.29 1.54 1.32 1.31 1.34 0.94 0.73 1.12 0.87 0.74 0.49 0.50 0.38 0.33 0.23 0.13 0.23 0.16 0.17 0.16 0.15 0.17 0.62 0.92 0.92 0.94 0.85 1.16 1.36 1.29 1.05 1.31 2.02 3.40 2.62 1.85 1.96 2.35 1.97 2.39 2.49 2.38 2.12
1.08 1.19 1.15 1.64 1.13 1.48 1.40 1.33 1.28 1.38 1.14 1.67 2.05 2.07 2.23 2.00 1.65 1.25 0.92 1.45 1.84 1.70 0.90 1.09 1.17 1.39 1.49 1.07 0.96 1.08 1.33 1.08 1.37 1.11 0.72 0.74 1.32 1.24 1.30 1.44 1.41 1.86 1.90 1.75 1.62 1.62 1.64 1.47 1.34 1.28 1.26 1.58 1.16 1.03 0.78 0.84 0.68 0.42 0.37 0.48 0.88 0.89 0.87 0.89 0.86 0.94 0.84 0.78 0.81 0.66 0.69 0.89 0.87 0.96 0.65 0.76 1.37 2.48 1.82 2.37 2.78 2.87 2.65 2.22 2.16 2.10
0.58 0.47 0.51 0.54 0.94 0.54 0.85 0.98 1.01 1.20 1.03 1.14 1.30 1.64 2.16 1.97 1.73 1.07 0.80 1.13 1.02 1.22 1.08 1.06 1.09 0.95 1.18 1.11 0.99 0.69 0.79 1.17 0.99 0.68 1.02 1.16 1.20 1.05 1.14 1.35 1.56 1.43 1.07 1.39 1.79 1.83 2.18 2.05 2.07 1.67 1.42 1.61 1.90 2.25 1.23 1.58 1.09 1.35 1.38 1.50 1.28 1.35 1.30 1.45 1.28 1.07 0.92 1.23 1.15 1.10 1.62 1.34 0.91 0.54 0.93 1.19 1.15 2.35 2.15 1.75 2.63 2.52 2.53 2.44 2.38 2.29
0.39 0.24 0.36 0.61 0.99 0.56 1.25 0.69 0.66 0.80 0.88 1.00 1.18 1.65 1.79 1.96 2.18 1.97 1.57 1.09 0.97 0.88 1.00 0.86 0.83 0.83 0.93 0.76 0.86 0.81 0.87 0.95 0.88 0.60 0.91 0.91 0.86 0.97 1.16 1.56 1.67 1.78 1.82 1.72 2.13 2.02 1.84 2.31 3.23 3.78 3.66 3.17 2.82 3.35 3.25 2.19 2.07 1.84 1.91 2.09 1.63 1.94 1.98 1.56 1.38 1.41 1.33 1.37 1.36 1.59 1.88 1.80 1.72 2.04 1.78 1.21 1.77 1.91 2.83 1.89 1.92 1.84 2.17 1.78 1.91 2.08
0.91 0.50 0.71 0.74 0.58 0.73 1.01 0.85 0.70 0.56 1.13 0.93 1.05 1.54 1.48 1.15 1.27 1.64 1.47 1.10 0.97 0.81 0.74 0.99 0.75 1.01 0.81 0.93 0.84 0.89 0.84 0.73 0.76 0.98 0.74 1.15 1.21 1.34 1.59 1.93 2.06 1.71 1.89 1.93 1.56 1.76 1.96 2.05 2.49 3.19 3.62 3.31 3.60 3.47 3.87 4.37 3.72 3.41 2.50 2.24 1.84 1.78 2.07 1.82 1.58 1.58 1.35 1.70 1.44 1.35 1.39 1.85 1.10 1.04 1.13 1.26 1.30 1.68 2.59 1.58 1.70 1.96 1.90 1.88 1.79 1.58
0.75 0.24 1.02 0.74 0.98 0.72 0.49 0.46 0.82 0.77 0.87 0.82 0.61 1.35 1.34 1.14 1.08 1.56 1.45 1.01 1.36 0.90 0.57 0.49 0.67 0.85 1.11 1.10 0.64 0.57 0.86 0.96 0.73 0.78 0.82 1.10 1.24 1.52 1.67 1.90 2.09 2.22 1.52 2.04 2.14 1.57 1.61 2.06 2.30 2.62 2.74 3.17 2.72 2.81 3.01 3.53 4.02 4.58 3.48 3.35 2.19 1.53 0.88 1.14 1.11 1.07 1.45 1.88 1.71 1.76 1.81 1.84 2.14 1.76 1.21 0.87 1.18 1.56 1.93 2.33 0.97 1.16 1.71 2.26 3.42 2.75
0.39 1.02 0.57 0.55 0.73 0.81 0.82 1.13 0.33 0.97 0.77 1.04 0.83 0.81 1.08 1.25 1.24 1.27 1.19 1.14 1.20 1.26 0.64 0.60 0.84 0.98 1.56 1.68 1.24 0.78 0.70 1.14 1.29 1.32 1.20 0.82 1.31 1.80 1.78 1.42 1.32 1.52 1.70 1.67 1.48 1.36 1.53 1.59 1.83 2.18 2.46 2.28 2.04 1.76 2.01 2.48 2.57 3.03 3.71 3.56 3.43 2.31 1.90 1.69 2.18 2.05 1.66 1.32 1.28 1.16 1.49 1.55 1.62 0.93 0.82 0.86 1.13 1.01 1.28 1.03 0.98 1.34 1.13 1.55 1.86 0.87
0.73 0.81 0.61 0.69 0.47 0.77 0.56 0.61 0.99 0.96 1.08 0.80 0.67 1.03 0.94 0.91 1.02 1.13 1.19 0.82 0.88 1.39 1.13 1.05 1.30 1.39 1.02 1.38 1.38 1.94 1.56 1.71 1.80 1.61 1.47 1.39 1.90 2.04 1.69 1.87 2.11 1.98 1.41 1.35 1.47 1.51 1.73 1.24 1.14 1.29 1.47 1.35 1.40 1.70 1.80 1.85 2.05 2.43 2.46 2.33 3.78 4.03 4.00 4.05 4.09 3.30 2.54 1.99 1.68 1.85 2.09 1.84 1.38 1.44 1.90 1.40 1.91 1.76 0.77 0.83 1.03 1.20 1.43 0.82 1.71 2.00